User: anonymous   Login
Location: Deep South Regional Star Gaze
(30.9929°N, 90.9586°W)
Time: 02:08:27
(UTC-05:00)
Language:

H-2A R/B - Orbit

View from above orbital plane
View from above orbital plane
View from above satellite
View from above satellite

Ground track
Ground track

The orbit data is extracted from the following two-line orbital elements,

1 26899U 01038B   16267.78947475  .00001068  00000-0  73436-3 0  9990
2 26899  28.0608 173.7885 7105572  11.2994 358.6527  2.47258624129910
Epoch (UTC): 23 September 2016 18:56:50
Eccentricity: 0.7105572
inclination: 28.0608°
perigee height: 308 km
apogee height: 33137 km
right ascension of ascending node: 173.7885°
argument of perigee: 11.2994°
revolutions per day: 2.47258624
mean anomaly at epoch: 358.6527°
orbit number at epoch: 12991

The dashed part of the orbit path shows where the satellite is in the earth's shadow,  

DLR